Location: Andershausen
(51.8462°N, 9.8595°E)
Time: 23:33:32
(UTC+00:00)

SMAP - Pass Details

Date: 18 November 2025
Orbit: 681 x 683 km, 98.1° (Epoch: 04 December)

Event Time Altitude Azimuth Distance (km) Brightness Sun altitude
Rises 16:35:09 0° 165° (SSE) 3,035 6.5 -10.6°
Reaches altitude 10° 16:37:22 10° 166° (SSE) 2,123 5.7 -10.9°
Maximum altitude 16:42:02 84° 255° (WSW) 694 3.1 -11.6°
Drops below altitude 10° 16:46:43 10° 344° (NNW) 2,139 5.6 -12.3°
Sets 16:48:58 0° 346° (NNW) 3,059 6.4 -12.6°
